Regional Weather Roundup
Issued by NWS

Home | Current Version | Previous Version | Text Only | Print | Product List | Glossary On
Versions: 1 2 3 4 5 6 7 8 9 10 11 12 13 14 15 16 17 18 19 20 21 22 23 24 25 26 27 28 29 30 31 32 33 34 35 36 37 38 39 40 41 42 43 44 45 46 47 48 49 50
000
ASUS43 KMKX 242100
RWRWI

WISCONSIN REGIONAL WEATHER ROUNDUP
NATIONAL WEATHER SERVICE MILWAUKEE/SULLIVAN WI
400 PM CDT THU MAY 24 2018

NOTE: "FAIR" INDICATES FEW OR NO CLOUDS BELOW 12,000 FEET WITH NO
SIGNIFICANT WEATHER AND/OR OBSTRUCTIONS TO VISIBILITY.

WIZ001-002-006>008-014>016-023>028-242200-
NORTHWEST WISCONSIN

CITY           SKY/WX    TMP DP  RH WIND       PRES   REMARKS
SUPERIOR ARPT  CLOUDY    56  53  90 E6        29.95F
ASHLAND        FAIR      83  67  58 S7        29.94F HX  85
HAYWARD        TSTM      70  65  84 N12G20    29.95F VSB 3/4
SIREN          FAIR      87  59  37 SW14G22   29.90  HX  87
CUMBERLAND     FAIR      86  59  39 S18G26    29.94F HX  85
RICE LAKE      FAIR      89  60  37 S18       29.95F HX  89
CHETEK         FAIR      87  65  48 S10G18    29.95F HX  88
LADYSMITH      PTSUNNY   84  64  50 S13G18    29.98F HX  86
EAU CLAIRE     NOT AVBL
MENOMONIE      FAIR      88  63  42 S16G23    29.95F HX  88
NEW RICHMOND   FAIR      89  55  31 S22       29.93F HX  87
OSCEOLA        FAIR      91  56  30 S21       29.94F HX  89
$$

WIZ003>005-009-010-017-018-242200-
NORTH CENTRAL WISCONSIN

CITY           SKY/WX    TMP DP  RH WIND       PRES   REMARKS
MANITOWISH WTR CLOUDY    79  65  62 S5        30.01F HX  81
ARBOR VITAE    FAIR      82  66  57 S12       30.02F HX  84
WOODRUFF       FAIR      82  66  57 S12       30.02F HX  84
RHINELANDER    FAIR      84  64  50 S7G17     30.03F HX  85
EAGLE RIVER    FAIR      81  60  49 SW10      30.03F HX  81
LAND O LAKES   FAIR      79  63  57 S5        30.04F HX  81
PHILLIPS       FAIR      84  66  55 S8        29.99F HX  86
TOMAHAWK       FAIR      82  65  55 S6        30.03F HX  84
MEDFORD        PTSUNNY   84  63  49 S13       30.01F HX  85
MERRILL        NOT AVBL
$$

WIZ029-030-035-036-043>047-242200-
CENTRAL WISCONSIN

CITY           SKY/WX    TMP DP  RH WIND       PRES   REMARKS
WAUSAU         FAIR      87  61  41 S13       30.00F HX  87
MOSINEE        PTSUNNY   84  63  48 S9G18     30.03F HX  85
MARSHFIELD     PTSUNNY   86  63  45 S13       30.01F HX  87
STEVENS POINT  FAIR      84  59  42 S13G18    30.04F HX  84
WAUPACA        FAIR      87  60  39 S9        30.05F HX  86
WAUTOMA        FAIR      86  62  44 S12       30.04F HX  86
WISC RAPIDS    FAIR      88  60  38 SW12      30.03F HX  87
CAMP DOUGLAS   PTSUNNY   86  64  48 S12G20    30.02F HX  87
$$

WIZ011>013-019>022-031-037>040-048>050-242200-
NORTHEAST WISCONSIN

CITY           SKY/WX    TMP DP  RH WIND       PRES   REMARKS
ANTIGO         FAIR      81  61  50 SW13G18   30.05F HX  82
SHAWANO        FAIR      87  59  39 S7        30.04F HX  86
OCONTO         FAIR      84  58  40 S14       30.03F HX  83
STURGEON BAY   FAIR      77  53  43 S15       30.06F
GREEN BAY      FAIR      84  61  45 SW12G18   30.05F HX  84
MANITOWOC      FAIR      71  54  54 S17G23    30.08F
APPLETON       PTSUNNY   82  55  39 SW12      30.05F HX  82
CLINTONVILLE   FAIR      86  57  37 S13G18    30.04F HX  85
OSHKOSH        FAIR      83  61  47 S12       30.05F HX  83
$$

WIZ032>034-041-042-053>061-242200-
SOUTHWEST WISCONSIN

CITY           SKY/WX    TMP DP  RH WIND       PRES   REMARKS
LA CROSSE      FAIR      89  65  44 S17G24    29.98F HX  91
SPARTA         FAIR      85  63  48 S10       30.02F HX  86
VIROQUA        PTSUNNY   85  63  47 S12       30.05F HX  86
BOSCOBEL       FAIR      88  64  44 SW9       30.03F HX  89
PRAIRIE DU CHI FAIR      87  61  42 SE8       30.02F HX  87
PLATTEVILLE    FAIR      84  66  55 SW13      30.07F HX  86
$$

WIZ056-057-062-063-064-067-068-242200-
SOUTH CENTRAL WISCONSIN

CITY           SKY/WX    TMP DP  RH WIND       PRES   REMARKS
REEDSBURG      FAIR      85  63  47 S10       30.04F HX  86
BARABOO/DELLS  FAIR      86  57  38 S13       30.05F HX  85
LONE ROCK      NOT AVBL
MINERAL POINT  FAIR      86  63  45 S12G20    30.08F HX  87
MADISON        PTSUNNY   84  60  44 S10G18    30.05F HX  84
MIDDLETON      FAIR      86  58  37 S12       30.07F HX  85
WATERTOWN      FAIR      84  61  44 S12       30.07F HX  84
MONROE         FAIR      84  55  37 S12       30.08F HX  83
JANESVILLE     MOSUNNY   86  55  35 S9        30.07F HX  84
$$

WIZ051-052-058>065-066-070>072-242200-
SOUTHEAST WISCONSIN

CITY           SKY/WX    TMP DP  RH WIND       PRES   REMARKS
MILWAUKEE      PTSUNNY   78  59  51 SE14      30.09F
WAUKESHA       SUNNY     82  55  39 S9        30.10F HX  82
MILWAUKEE/TIMM SUNNY     84  52  32 SW12      30.08F HX  82
RACINE         FAIR      76  54  46 S15       30.12F
BURLINGTON     FAIR      85  58  39 SW3       30.09F HX  84
KENOSHA        FAIR      82  57  42 SE10      30.10F HX  82
FOND DU LAC    FAIR      84  59  42 SW12      30.06F HX  84
SHEBOYGAN      FAIR      76  56  49 S14G21    30.08F
WEST BEND      FAIR      81  57  44 SE8       30.08F HX  81
JUNEAU         FAIR      83  60  45 S7        30.09F HX  83
$$

LSZ147-162-242200-
LAKE SUPERIOR

STATION/POSITION TIME  TEMP    WIND        PRES    WAVE
                       AIR SEA DIR/SP/G            HT/PER
                 (UTC) (F)     (DEG/KT/KT) (MB)    (FT/S)
W MID LAKE BUOY  1950   45 36  120/  6/  6 1015.7F   0
DEVILS ISLAND    2000   47      70/  4/  5 1015.4F
SAXON HARBOR     2030   60     310/  3/  4 1013.9F
$$

LMZ867-665-643>646-242200-
LAKE MICHIGAN

STATION/POSITION TIME  TEMP    WIND        PRES    WAVE
                       AIR SEA DIR/SP/G            HT/PER
                 (UTC) (F)     (DEG/KT/KT) (MB)    (FT/S)
N MID LAKE BUOY  2040   43 38  200/  8/ 10 1018.6F
NORTHPORT PIER   2040   65     150/  5/  7 1017.9F
KEWAUNEE LAKESHO 2024   51     170/ 11/ 12 1018.2
SHEBOYGAN LAKESH 2000   53     170/ 18/ 19 1019.2F
PORT WASHINGTON  2030   60      70/  2/  4 1020.3F
ATWATER BUOY     2007   57 51  170/ 10/ 12 1019.3    1/ 3
MILWAUKEE LAKESH 2030   57     140/ 15/ 16   N/A
S MID LAKE BUOY  1950   55 40  140/  8/  8 1021.0F   0
KENOSHA   LAKESH 2000   63                 1019.6
$$

TC  - TEMPERATURE IN CELSIUS
VSB - VISIBILITY IN STATUTE MILES
WCI - WIND CHILL INDEX
HX  - HEAT INDEX




USA.gov is the U.S. government's official web portal to all federal, state and local government web resources and services.